Location: 相模原市立博物館
(35.5593°N, 139.3931°E)
Time: 05:04:50
(UTC+09:00)

X-37B - Pass Details

Date: 24 October 2021
Orbit: 330 x 341 km, 45.0° (Epoch: 20 November)

Event Time Altitude Azimuth Distance (km) Brightness Sun altitude
Rises 17:31:42 0° 307° (NW) 2,125 5.0 -7.9°
Reaches altitude 10° 17:34:14 10° 331° (NNW) 1,285 3.5 -8.4°
Maximum altitude 17:36:08 16° 12° (NNE) 1,000 2.5 -8.8°
Enters shadow 17:37:54 11° 52° (NE) 1,248 2.6 -9.1°
